{"data":{"norad_id":54699,"intl_designator":"2022-169A","name":"SHIYAN-20A (SY-20A)","alt_names":[],"object_type":"PAYLOAD","status":"ACTIVE","operator":null,"country":"PRC","launch_date":"2022-12-12","launch_site_code":"JSC","launch_vehicle":null,"mission":null,"orbit_class":"UNKNOWN","rcs_meters":null,"size_class":null,"mass_kg":null,"dimensions":null,"purposes":[],"wikipedia_slug":null,"has_3d_model":false,"image_url":null,"decayed_at":null,"tle_current":{"epoch":"2026-05-25T05:20:57.904224Z","epoch_age_seconds":56124,"freshness":"FRESH","line1":"1 54699U 22169A   26145.22289241  .00000006  00000+0  55506-4 0  9991","line2":"2 54699  59.9975 316.3394 0010066 159.1651 200.9796 14.29519424180079","mean_motion":14.29519424,"eccentricity":0.0010066,"inclination_deg":59.9975,"raan_deg":316.3394,"arg_perigee_deg":159.1651,"mean_anomaly_deg":200.9796,"bstar":5.5506e-5,"rev_number":18007,"period_min":100.73315380148,"perigee_km":786.11884098463,"apogee_km":800.5564537447,"semimajor_km":7171.4746473647,"source":"CELESTRAK","updated_at":"2026-05-25T13:37:58.710836Z"}}}